FIN8AK EFHK-EFOU

Flight info

Callsign FIN8AK
Flight time 0h 48m
Altitude 36000
Route TEVRU Y75 SUVIB
Aircraft A320/M-SDE3FGHIRWY/LB1

Departure

Time 2026-05-06 12:54
Airport Helsinki Vantaa Airport (EFHK)

Arrival

Time 2026-05-06 13:42
Airport Oulu Airport (EFOU)
Time Latitude Longitude Altitude Speed Heading
2026-05-06 12:21 60.31786 24.97080 154 ft 0 kts 244°
2026-05-06 12:43 60.31794 24.97118 161 ft 4 kts 252°
2026-05-06 12:43 60.31800 24.97168 161 ft 4 kts 270°
2026-05-06 12:43 60.31796 24.97217 161 ft 4 kts 307°
2026-05-06 12:43 60.31787 24.97235 161 ft 0 kts 333°
2026-05-06 12:48 60.31814 24.97207 161 ft 17 kts 333°
2026-05-06 12:48 60.31939 24.97079 161 ft 21 kts 332°
2026-05-06 12:48 60.32075 24.96932 161 ft 23 kts 331°
2026-05-06 12:49 60.32218 24.96765 161 ft 25 kts 330°
2026-05-06 12:49 60.32329 24.96637 161 ft 5 kts 330°
2026-05-06 12:49 60.32335 24.96629 162 ft 0 kts 330°
2026-05-06 12:50 60.32357 24.96604 162 ft 9 kts 330°
2026-05-06 12:50 60.32444 24.96501 161 ft 20 kts 329°
2026-05-06 12:51 60.32579 24.96343 161 ft 24 kts 329°
2026-05-06 12:51 60.32728 24.96170 161 ft 26 kts 330°
2026-05-06 12:51 60.32886 24.95985 161 ft 27 kts 329°
2026-05-06 12:51 60.33053 24.95791 161 ft 28 kts 329°
2026-05-06 12:52 60.33180 24.95567 161 ft 24 kts 316°
2026-05-06 12:52 60.33183 24.95338 161 ft 19 kts 229°
2026-05-06 12:52 60.33107 24.95111 161 ft 20 kts 258°
2026-05-06 12:52 60.33113 24.94819 162 ft 22 kts 274°
2026-05-06 12:53 60.33121 24.94525 169 ft 18 kts 274°
2026-05-06 12:53 60.33098 24.94351 174 ft 0 kts 227°
2026-05-06 12:54 60.33003 24.94146 178 ft 55 kts 228°
2026-05-06 12:54 60.32579 24.93210 167 ft 125 kts 227°
2026-05-06 12:54 60.31904 24.91739 538 ft 146 kts 229°
2026-05-06 12:54 60.31212 24.90221 1366 ft 146 kts 230°
2026-05-06 12:55 60.30530 24.88559 1974 ft 163 kts 242°
2026-05-06 12:55 60.30177 24.86243 2426 ft 186 kts 268°
2026-05-06 12:55 60.30456 24.83547 2896 ft 211 kts 293°
2026-05-06 12:55 60.31079 24.80707 3450 ft 236 kts 294°
2026-05-06 12:56 60.31767 24.77606 4284 ft 247 kts 295°
2026-05-06 12:56 60.32559 24.74483 5348 ft 251 kts 298°
2026-05-06 12:56 60.33410 24.71385 6448 ft 254 kts 299°
2026-05-06 12:56 60.34284 24.68284 7405 ft 259 kts 299°
2026-05-06 12:57 60.35353 24.65323 8366 ft 266 kts 316°
2026-05-06 12:57 60.36930 24.63307 9394 ft 273 kts 337°
2026-05-06 12:57 60.38794 24.62657 10301 ft 282 kts
2026-05-06 12:57 60.40791 24.63325 10924 ft 301 kts
2026-05-06 12:58 60.42937 24.64275 11266 ft 326 kts
2026-05-06 12:58 60.45200 24.65319 11619 ft 347 kts
2026-05-06 12:58 60.47594 24.66442 12323 ft 355 kts
2026-05-06 12:58 60.50028 24.67586 13122 ft 361 kts
2026-05-06 12:59 60.52495 24.68740 13923 ft 366 kts
2026-05-06 12:59 60.54952 24.69880 14575 ft 371 kts
2026-05-06 12:59 60.57502 24.71053 15249 ft 376 kts
2026-05-06 12:59 60.60058 24.72223 15891 ft 382 kts
2026-05-06 13:00 60.62673 24.73421 16549 ft 387 kts
2026-05-06 13:00 60.65325 24.74638 17193 ft 393 kts
2026-05-06 13:00 60.68019 24.75877 17840 ft 398 kts
2026-05-06 13:00 60.70742 24.77136 18459 ft 404 kts
2026-05-06 13:01 60.73485 24.78412 19023 ft 409 kts
2026-05-06 13:01 60.76285 24.79719 19616 ft 414 kts
2026-05-06 13:01 60.79109 24.81041 20201 ft 418 kts
2026-05-06 13:01 60.81934 24.82324 20767 ft 420 kts
2026-05-06 13:02 60.84818 24.83105 21306 ft 419 kts 356°
2026-05-06 13:02 60.87744 24.83790 21864 ft 423 kts 355°
2026-05-06 13:02 60.90654 24.84465 22394 ft 427 kts 355°
2026-05-06 13:02 60.93629 24.85160 22919 ft 431 kts 355°
2026-05-06 13:03 60.96634 24.85868 23429 ft 435 kts 355°
2026-05-06 13:03 60.99636 24.86576 23840 ft 439 kts 355°
2026-05-06 13:03 61.02684 24.87302 24244 ft 443 kts 355°
2026-05-06 13:03 61.05761 24.88044 24647 ft 446 kts 355°
2026-05-06 13:04 61.08862 24.88791 25043 ft 449 kts 354°
2026-05-06 13:04 61.11940 24.89532 25433 ft 452 kts 354°
2026-05-06 13:04 61.15085 24.90291 25819 ft 455 kts 354°
2026-05-06 13:04 61.18249 24.91053 26191 ft 458 kts 354°
2026-05-06 13:05 61.21440 24.91817 26558 ft 461 kts 354°
2026-05-06 13:05 61.24613 24.92575 26918 ft 464 kts 354°
2026-05-06 13:05 61.27831 24.93342 27277 ft 467 kts 354°
2026-05-06 13:05 61.31088 24.94124 27618 ft 470 kts 354°
2026-05-06 13:06 61.34315 24.94908 27957 ft 472 kts 354°
2026-05-06 13:06 61.37591 24.95708 28280 ft 475 kts 354°
2026-05-06 13:06 61.40786 24.96489 28578 ft 477 kts 354°
2026-05-06 13:06 61.44069 24.97299 28872 ft 480 kts 354°
2026-05-06 13:07 61.47417 24.98127 29158 ft 483 kts 354°
2026-05-06 13:07 61.50740 24.98944 29426 ft 485 kts 354°
2026-05-06 13:07 61.54090 24.99770 29681 ft 487 kts 354°
2026-05-06 13:07 61.57469 25.00609 30021 ft 487 kts 354°
2026-05-06 13:08 61.60835 25.01418 30331 ft 483 kts 352°
2026-05-06 13:08 61.64158 25.01676 30642 ft 474 kts 348°
2026-05-06 13:08 61.67463 25.01795 30951 ft 473 kts 348°
2026-05-06 13:08 61.70729 25.01910 31262 ft 473 kts 348°
2026-05-06 13:09 61.74006 25.02029 31578 ft 472 kts 348°
2026-05-06 13:09 61.77295 25.02153 31878 ft 471 kts 349°
2026-05-06 13:09 61.80544 25.02274 32180 ft 471 kts 349°
2026-05-06 13:09 61.83833 25.02399 32498 ft 470 kts 349°
2026-05-06 13:10 61.87102 25.02525 32822 ft 470 kts 349°
2026-05-06 13:10 61.90376 25.02653 33149 ft 469 kts 349°
2026-05-06 13:10 61.93634 25.02782 33471 ft 469 kts 350°
2026-05-06 13:10 61.96856 25.02909 33783 ft 468 kts 350°
2026-05-06 13:11 62.00123 25.03037 34068 ft 468 kts 350°
2026-05-06 13:11 62.03397 25.03160 34311 ft 468 kts 351°
2026-05-06 13:11 62.06629 25.03281 34563 ft 468 kts 351°
2026-05-06 13:11 62.09882 25.03402 34812 ft 469 kts 351°
2026-05-06 13:12 62.13156 25.03530 35057 ft 469 kts 351°
2026-05-06 13:12 62.16421 25.03656 35296 ft 469 kts 352°
2026-05-06 13:12 62.19666 25.03778 35531 ft 469 kts 352°
2026-05-06 13:12 62.22954 25.03901 35750 ft 470 kts 352°
2026-05-06 13:13 62.26198 25.04024 35900 ft 470 kts 352°
2026-05-06 13:13 62.32779 25.04281 35934 ft 470 kts 352°
2026-05-06 13:14 62.39318 25.04526 35936 ft 471 kts 352°
2026-05-06 13:14 62.45842 25.04778 35933 ft 471 kts 353°
2026-05-06 13:15 62.52368 25.05031 35932 ft 471 kts 353°
2026-05-06 13:15 62.58933 25.05286 35939 ft 471 kts 353°
2026-05-06 13:16 62.65477 25.05545 35944 ft 471 kts 353°
2026-05-06 13:16 62.72041 25.05802 35947 ft 471 kts 353°
2026-05-06 13:17 62.78581 25.06067 35947 ft 471 kts 353°
2026-05-06 13:17 62.85141 25.06330 35950 ft 472 kts 353°
2026-05-06 13:18 62.91730 25.06589 35955 ft 472 kts 353°
2026-05-06 13:18 62.98265 25.06850 35949 ft 472 kts 353°
2026-05-06 13:19 63.04866 25.07117 35952 ft 472 kts 354°
2026-05-06 13:19 63.11407 25.07383 35949 ft 472 kts 354°
2026-05-06 13:20 63.17969 25.07656 35949 ft 472 kts 354°
2026-05-06 13:20 63.24572 25.07931 35944 ft 472 kts 354°
2026-05-06 13:21 63.31119 25.08196 35943 ft 472 kts 354°
2026-05-06 13:21 63.37693 25.08465 35935 ft 472 kts 354°
2026-05-06 13:22 63.44235 25.08724 35939 ft 473 kts 354°
2026-05-06 13:22 63.50802 25.08980 35934 ft 473 kts 354°
2026-05-06 13:23 63.57421 25.09252 35932 ft 473 kts 354°
2026-05-06 13:23 63.63991 25.09536 35935 ft 473 kts 355°
2026-05-06 13:24 63.70555 25.09812 35925 ft 473 kts 355°
2026-05-06 13:24 63.73850 25.09953 35744 ft 471 kts 355°
2026-05-06 13:24 63.77127 25.10096 34430 ft 471 kts 354°
2026-05-06 13:24 63.80389 25.10227 32668 ft 476 kts 354°
2026-05-06 13:25 63.83708 25.10359 30880 ft 477 kts 353°
2026-05-06 13:25 63.87036 25.10496 28873 ft 476 kts 354°
2026-05-06 13:25 63.90342 25.10636 26611 ft 474 kts 355°
2026-05-06 13:25 63.93586 25.10771 24832 ft 467 kts 357°
2026-05-06 13:26 63.96801 25.10909 23235 ft 456 kts 358°
2026-05-06 13:26 63.99936 25.11045 21555 ft 444 kts 358°
2026-05-06 13:26 64.01980 25.11133 20508 ft 436 kts 359°
2026-05-06 13:26 64.04986 25.11264 19046 ft 426 kts 359°
2026-05-06 13:27 64.08861 25.11430 17670 ft 410 kts
2026-05-06 13:27 64.10731 25.11510 17438 ft 400 kts
2026-05-06 13:27 64.13483 25.11629 16872 ft 393 kts 360°
2026-05-06 13:27 64.16200 25.11744 16344 ft 386 kts 360°
2026-05-06 13:28 64.18869 25.11855 15808 ft 380 kts 359°
2026-05-06 13:28 64.21474 25.11967 15269 ft 375 kts 359°
2026-05-06 13:28 64.24070 25.12080 14729 ft 370 kts 359°
2026-05-06 13:28 64.26639 25.12193 14167 ft 367 kts 359°
2026-05-06 13:29 64.29182 25.12302 13576 ft 363 kts 359°
2026-05-06 13:29 64.31700 25.12402 12962 ft 359 kts 359°
2026-05-06 13:29 64.34170 25.12504 12338 ft 356 kts 359°
2026-05-06 13:29 64.36642 25.12611 11711 ft 352 kts 359°
2026-05-06 13:30 64.39051 25.12716 11082 ft 349 kts 359°
2026-05-06 13:30 64.41446 25.13054 10777 ft 335 kts
2026-05-06 13:30 64.43639 25.14302 10651 ft 314 kts 17°
2026-05-06 13:30 64.45583 25.16314 10491 ft 297 kts 27°
2026-05-06 13:31 64.47303 25.18725 10221 ft 289 kts 30°
2026-05-06 13:31 64.49012 25.21154 9967 ft 285 kts 30°
2026-05-06 13:31 64.50706 25.23564 9771 ft 284 kts 29°
2026-05-06 13:31 64.52370 25.25933 9630 ft 284 kts 30°
2026-05-06 13:32 64.54052 25.28331 9493 ft 283 kts 30°
2026-05-06 13:32 64.55735 25.30731 9346 ft 282 kts 29°
2026-05-06 13:32 64.57387 25.33093 9215 ft 280 kts 29°
2026-05-06 13:32 64.59021 25.35436 9063 ft 269 kts 30°
2026-05-06 13:33 64.60618 25.37733 8858 ft 268 kts 30°
2026-05-06 13:33 64.62174 25.39971 8517 ft 262 kts 30°
2026-05-06 13:33 64.63698 25.42168 8175 ft 249 kts 30°
2026-05-06 13:33 64.65117 25.44221 7850 ft 237 kts 30°
2026-05-06 13:34 64.66519 25.46246 7521 ft 234 kts 30°
2026-05-06 13:34 64.67885 25.48219 7215 ft 232 kts 30°
2026-05-06 13:34 64.69251 25.50198 6909 ft 229 kts 30°
2026-05-06 13:34 64.70602 25.52157 6599 ft 228 kts 30°
2026-05-06 13:35 64.71955 25.54119 6285 ft 228 kts 30°
2026-05-06 13:35 64.73289 25.56048 5963 ft 228 kts 30°
2026-05-06 13:35 64.74633 25.57997 5640 ft 222 kts 30°
2026-05-06 13:35 64.75916 25.59863 5343 ft 213 kts 30°
2026-05-06 13:36 64.77140 25.61645 5069 ft 205 kts 29°
2026-05-06 13:36 64.78339 25.63363 4780 ft 198 kts 29°
2026-05-06 13:36 64.79489 25.65001 4515 ft 185 kts 29°
2026-05-06 13:36 64.80535 25.66492 4226 ft 169 kts 28°
2026-05-06 13:37 64.81503 25.67873 3997 ft 158 kts 27°
2026-05-06 13:37 64.82474 25.68857 3765 ft 147 kts
2026-05-06 13:37 64.83443 25.68876 3570 ft 136 kts 346°
2026-05-06 13:37 64.84303 25.68097 3378 ft 130 kts 326°
2026-05-06 13:38 64.84977 25.66687 3218 ft 129 kts 307°
2026-05-06 13:38 64.85450 25.64922 3018 ft 128 kts 301°
2026-05-06 13:38 64.85912 25.63130 2830 ft 127 kts 301°
2026-05-06 13:38 64.86370 25.61350 2656 ft 128 kts 300°
2026-05-06 13:39 64.86824 25.59566 2430 ft 127 kts 300°
2026-05-06 13:39 64.87274 25.57806 2247 ft 127 kts 300°
2026-05-06 13:39 64.87729 25.56026 2105 ft 126 kts 300°
2026-05-06 13:39 64.88183 25.54253 1930 ft 126 kts 300°
2026-05-06 13:40 64.88631 25.52513 1761 ft 126 kts 300°
2026-05-06 13:40 64.89076 25.50737 1591 ft 125 kts 300°
2026-05-06 13:40 64.89517 25.48990 1402 ft 125 kts 300°
2026-05-06 13:40 64.89976 25.47256 1167 ft 123 kts 301°
2026-05-06 13:41 64.90431 25.45530 1007 ft 124 kts 300°
2026-05-06 13:41 64.90862 25.43797 801 ft 124 kts 299°
2026-05-06 13:41 64.91293 25.42029 576 ft 124 kts 301°
2026-05-06 13:41 64.91752 25.40332 386 ft 122 kts 303°
2026-05-06 13:42 64.92206 25.38637 212 ft 122 kts 299°
2026-05-06 13:42 64.92631 25.36958 48 ft 115 kts 300°
2026-05-06 13:42 64.92974 25.35614 46 ft 71 kts 301°
2026-05-06 13:42 64.93120 25.35249 49 ft 19 kts 331°
2026-05-06 13:43 64.93211 25.35264 44 ft 10 kts 48°
2026-05-06 13:43 64.93223 25.35313 43 ft 0 kts 66°
2026-05-06 13:43 64.93218 25.35417 44 ft 14 kts 115°
2026-05-06 13:43 64.93154 25.35669 41 ft 21 kts 121°
2026-05-06 13:44 64.93071 25.35993 44 ft 24 kts 121°
2026-05-06 13:44 64.92987 25.36321 44 ft 19 kts 118°
2026-05-06 13:44 64.92926 25.36561 44 ft 17 kts 120°
2026-05-06 13:44 64.92864 25.36808 44 ft 18 kts 121°
2026-05-06 13:45 64.92804 25.37040 42 ft 8 kts 122°
2026-05-06 13:45 64.92820 25.37267 44 ft 2 kts 62°
2026-05-06 13:45 64.92822 25.37274 44 ft 0 kts 62°